User: anonymous   Login
Location: St. Malo Provincial Park
(49.3214°N, 96.9305°W)
Time: 06:27:19
(UTC-06:00)
Language:

Iridium 6 - Orbit

View from above orbital plane
View from above orbital plane
View from above satellite
View from above satellite

Ground track
Ground track

The orbit data is extracted from the following two-line orbital elements,

1 24794U 97020C   14329.53511035  .00000406  00000-0  13797-3 0  8805
2 24794 086.3958 349.5626 0002257 111.2942 248.8495 14.34216736919239
Epoch (UTC): 25 November 2014 12:50:33
Eccentricity: 0.0002257
inclination: 86.3958°
perigee height: 776 km
apogee height: 779 km
right ascension of ascending node: 349.5626°
argument of perigee: 111.2942°
revolutions per day: 14.34216736
mean anomaly at epoch: 248.8495°
orbit number at epoch: 91923

The dashed part of the orbit path shows where the satellite is in the earth's shadow,  

DLR